| time (UTC) | temp C | wind direction | speed KPH | gust KPH | rain 1hr cm | rain 24hr cm | rain mn cm | humidity % | barometer mb |
| 20260508141503 | 22 | 157 | 4.8 | 16.1 | 0.00 | 0.00 | 0.00 | 77 | 1013.9 |
| 20260508140002 | 22 | 284 | 3.2 | 11.3 | 0.00 | 0.00 | 0.00 | 78 | 1013.7 |
| 20260508134544 | 22 | 104 | 4.8 | 11.3 | 0.00 | 0.00 | 0.00 | 77 | 1013.7 |
| 20260508133043 | 22 | 290 | 4.8 | 14.5 | 0.00 | 0.00 | 0.00 | 76 | 1013.7 |
| 20260508131524 | 22 | 5 | 4.8 | 16.1 | 0.00 | 0.00 | 0.00 | 76 | 1013.9 |
| 20260508130023 | 22 | 23 | 6.4 | 17.7 | 0.00 | 0.00 | 0.00 | 75 | 1014.0 |
| 20260508124504 | 23 | 279 | 4.8 | 9.7 | 0.00 | 0.00 | 0.00 | 74 | 1014.1 |
| 20260508123007 | 22 | 331 | 6.4 | 14.5 | 0.00 | 0.00 | 0.00 | 72 | 1014.3 |
| 20260508121547 | 22 | 313 | 4.8 | 12.9 | 0.00 | 0.00 | 0.00 | 73 | 1014.4 |
| 20260508120050 | 22 | 315 | 4.8 | 12.9 | 0.00 | 0.00 | 0.00 | 72 | 1014.5 |
| 20260508114525 | 23 | 326 | 6.4 | 16.1 | 0.00 | 0.00 | 0.00 | 71 | 1014.6 |
| 20260508113025 | 23 | 246 | 8.0 | 14.5 | 0.00 | 0.00 | 0.00 | 70 | 1014.8 |
| 20260508111513 | 23 | 63 | 3.2 | 11.3 | 0.00 | 0.00 | 0.00 | 71 | 1015.0 |
| 20260508110019 | 23 | 299 | 4.8 | 12.9 | 0.00 | 0.00 | 0.00 | 72 | 1015.0 |
| 20260508104549 | 22 | 297 | 8.0 | 16.1 | 0.00 | 0.00 | 0.00 | 71 | 1015.2 |
| 20260508103050 | 23 | 64 | 6.4 | 14.5 | 0.00 | 0.00 | 0.00 | 72 | 1015.2 |
| 20260508101528 | 23 | 349 | 6.4 | 14.5 | 0.00 | 0.00 | 0.00 | 73 | 1015.1 |
| 20260508100032 | 22 | 292 | 6.4 | 14.5 | 0.00 | 0.00 | 0.00 | 72 | 1015.2 |
| 20260508094510 | 22 | 22 | 6.4 | 14.5 | 0.00 | 0.00 | 0.00 | 73 | 1015.5 |
| 20260508093010 | 22 | 246 | 6.4 | 14.5 | 0.00 | 0.00 | 0.00 | 73 | 1015.6 |
| 20260508091607 | 22 | 311 | 4.8 | 17.7 | 0.00 | 0.00 | 0.00 | 72 | 1015.8 |
| 20260508090051 | 22 | 340 | 4.8 | 14.5 | 0.00 | 0.00 | 0.00 | 72 | 1015.8 |
| 20260508084529 | 22 | 273 | 4.8 | 12.9 | 0.00 | 0.00 | 0.00 | 73 | 1015.9 |
| 20260508083027 | 21 | 260 | 6.4 | 12.9 | 0.00 | 0.00 | 0.00 | 74 | 1016.2 |
| 20260508081508 | 21 | 306 | 4.8 | 16.1 | 0.00 | 0.00 | 0.00 | 73 | 1016.3 |
| 20260508080006 | 22 | 175 | 4.8 | 14.5 | 0.00 | 0.00 | 0.00 | 72 | 1016.3 |
| 20260508074547 | 22 | 304 | 3.2 | 12.9 | 0.00 | 0.00 | 0.00 | 70 | 1016.3 |
| 20260508073047 | 22 | 220 | 1.6 | 14.5 | 0.00 | 0.00 | 0.00 | 70 | 1016.3 |
| 20260508071526 | 22 | 348 | 3.2 | 8.0 | 0.00 | 0.00 | 0.00 | 70 | 1016.1 |
| 20260508070021 | 22 | 290 | 3.2 | 9.7 | 0.00 | 0.00 | 0.00 | 70 | 1016.1 |
| 20260508064600 | 22 | 273 | 3.2 | 8.0 | 0.00 | 0.00 | 0.00 | 69 | 1016.1 |
| 20260508063059 | 22 | 325 | 1.6 | 6.4 | 0.00 | 0.00 | 0.00 | 70 | 1016.2 |
| 20260508061535 | 22 | 267 | 0.0 | 3.2 | 0.00 | 0.00 | 0.00 | 75 | 1016.3 |
| 20260508060039 | 20 | 267 | 0.0 | 3.2 | 0.00 | 0.00 | 0.00 | 78 | 1016.6 |
| 20260508054531 | 19 | 262 | 0.0 | 3.2 | 0.00 | 0.00 | 0.00 | 81 | 1016.6 |
| 20260508053011 | 18 | 42 | 1.6 | 6.4 | 0.00 | 0.00 | 0.00 | 81 | 1016.6 |
| 20260508051507 | 18 | 301 | 3.2 | 8.0 | 0.00 | 0.00 | 0.00 | 82 | 1016.6 |
| 20260508050004 | 17 | 289 | 1.6 | 9.7 | 0.00 | 0.00 | 0.00 | 82 | 1016.4 |
| 20260508044502 | 17 | 217 | 1.6 | 9.7 | 0.00 | 0.00 | 0.00 | 83 | 1016.4 |
| 20260508043102 | 16 | 338 | 3.2 | 4.8 | 0.00 | 0.00 | 0.00 | 84 | 1016.3 |
| 20260508041559 | 16 | 338 | 1.6 | 3.2 | 0.00 | 0.00 | 0.00 | 84 | 1016.1 |
| 20260508040100 | 16 | 338 | 0.0 | 0.0 | 0.00 | 0.00 | 0.00 | 84 | 1016.0 |
| 20260508034558 | 16 | 338 | 0.0 | 1.6 | 0.00 | 0.00 | 0.00 | 85 | 1015.6 |
| 20260508033040 | 16 | 338 | 0.0 | 0.0 | 0.00 | 0.00 | 0.00 | 84 | 1015.5 |
| 20260508031537 | 15 | 338 | 0.0 | 3.2 | 0.00 | 0.00 | 0.00 | 84 | 1015.3 |
| 20260508030019 | 15 | 338 | 0.0 | 3.2 | 0.00 | 0.00 | 0.00 | 84 | 1015.3 |
| 20260508024517 | 15 | 338 | 0.0 | 1.6 | 0.00 | 0.00 | 0.00 | 84 | 1015.1 |
| 20260508023058 | 16 | 338 | 0.0 | 3.2 | 0.00 | 0.00 | 0.00 | 84 | 1015.0 |
| 20260508021557 | 16 | 338 | 0.0 | 3.2 | 0.00 | 0.00 | 0.00 | 85 | 1014.7 |
| 20260508020038 | 16 | 338 | 0.0 | 3.2 | 0.00 | 0.00 | 0.00 | 85 | 1014.5 |
| 20260508014539 | 16 | 338 | 0.0 | 3.2 | 0.00 | 0.00 | 0.00 | 85 | 1014.6 |
| 20260508013019 | 16 | 338 | 1.6 | 4.8 | 0.00 | 0.00 | 0.00 | 85 | 1014.9 |
| 20260508011517 | 16 | 338 | 0.0 | 0.0 | 0.00 | 0.00 | 0.00 | 85 | 1014.9 |
| 20260508004557 | 16 | 338 | 0.0 | 3.2 | 0.00 | 0.00 | 0.00 | 85 | 1015.3 |
| 20260508003042 | 16 | 338 | 0.0 | 0.0 | 0.00 | 0.00 | 0.00 | 85 | 1015.4 |
| 20260508001542 | 16 | 338 | 0.0 | 0.0 | 0.00 | 0.00 | 0.00 | 85 | 1015.5 |
| 20260508000040 | 16 | 338 | 0.0 | 6.4 | 0.00 | 0.00 | 0.00 | 85 | 1015.5 |
| 20260507234542 | 16 | 338 | 0.0 | 4.8 | 0.00 | 0.00 | 0.00 | 84 | 1015.6 |
| 20260507233038 | 16 | 338 | 0.0 | 3.2 | 0.00 | 0.00 | 0.00 | 84 | 1015.8 |
| 20260507231542 | 16 | 338 | 1.6 | 4.8 | 0.00 | 0.00 | 0.00 | 84 | 1015.9 |
| 20260507230040 | 16 | 338 | 0.0 | 3.2 | 0.00 | 0.00 | 0.00 | 83 | 1016.0 |
| 20260507224533 | 17 | 338 | 1.6 | 3.2 | 0.00 | 0.00 | 0.00 | 83 | 1016.0 |
| 20260507223014 | 17 | 338 | 0.0 | 4.8 | 0.00 | 0.00 | 0.00 | 83 | 1016.3 |
| 20260507221512 | 17 | 338 | 0.0 | 3.2 | 0.00 | 0.00 | 0.00 | 83 | 1016.2 |
| 20260507220054 | 17 | 338 | 1.6 | 4.8 | 0.00 | 0.00 | 0.00 | 82 | 1016.3 |
| 20260507214553 | 17 | 338 | 0.0 | 4.8 | 0.00 | 0.00 | 0.00 | 82 | 1016.2 |
| 20260507213035 | 17 | 338 | 1.6 | 3.2 | 0.00 | 0.00 | 0.00 | 82 | 1016.3 |
| 20260507211539 | 17 | 338 | 0.0 | 4.8 | 0.00 | 0.00 | 0.00 | 82 | 1016.1 |
| 20260507210014 | 17 | 332 | 3.2 | 8.0 | 0.00 | 0.00 | 0.00 | 82 | 1016.0 |
| 20260507204513 | 17 | 166 | 3.2 | 9.7 | 0.00 | 0.00 | 0.00 | 81 | 1015.7 |
| 20260507203059 | 17 | 277 | 3.2 | 9.7 | 0.00 | 0.00 | 0.00 | 81 | 1015.5 |
| 20260507201555 | 17 | 347 | 3.2 | 8.0 | 0.00 | 0.00 | 0.00 | 81 | 1015.4 |
| 20260507200038 | 17 | 134 | 1.6 | 8.0 | 0.00 | 0.00 | 0.00 | 81 | 1015.4 |
| 20260507194536 | 17 | 313 | 4.8 | 8.0 | 0.00 | 0.00 | 0.00 | 81 | 1015.6 |
| 20260507193017 | 17 | 298 | 3.2 | 8.0 | 0.00 | 0.00 | 0.00 | 80 | 1015.6 |
| 20260507191516 | 17 | 317 | 1.6 | 6.4 | 0.00 | 0.00 | 0.00 | 80 | 1015.6 |
| 20260507190059 | 17 | 282 | 1.6 | 6.4 | 0.00 | 0.00 | 0.00 | 79 | 1015.7 |
| 20260507184558 | 17 | 277 | 1.6 | 6.4 | 0.00 | 0.00 | 0.00 | 79 | 1015.8 |
| 20260507183047 | 17 | 254 | 1.6 | 6.4 | 0.00 | 0.00 | 0.00 | 79 | 1015.9 |
| 20260507181543 | 18 | 305 | 1.6 | 8.0 | 0.00 | 0.00 | 0.00 | 78 | 1015.9 |
| 20260507180027 | 18 | 277 | 1.6 | 6.4 | 0.00 | 0.00 | 0.00 | 77 | 1015.7 |
| 20260507174521 | 18 | 190 | 3.2 | 8.0 | 0.00 | 0.00 | 0.00 | 77 | 1015.6 |
| 20260507173006 | 18 | 123 | 3.2 | 9.7 | 0.00 | 0.00 | 0.00 | 76 | 1015.5 |
| 20260507171503 | 18 | 257 | 3.2 | 12.9 | 0.00 | 0.00 | 0.00 | 75 | 1015.4 |
| 20260507170045 | 18 | 317 | 1.6 | 12.9 | 0.00 | 0.00 | 0.00 | 74 | 1015.4 |
| 20260507164549 | 18 | 311 | 3.2 | 11.3 | 0.00 | 0.00 | 0.00 | 73 | 1015.3 |
| 20260507163026 | 18 | 270 | 3.2 | 9.7 | 0.00 | 0.00 | 0.00 | 73 | 1015.3 |
| 20260507161536 | 19 | 319 | 3.2 | 11.3 | 0.00 | 0.00 | 0.00 | 73 | 1015.1 |
| 20260507160018 | 19 | 268 | 4.8 | 11.3 | 0.00 | 0.00 | 0.00 | 72 | 1015.0 |
| 20260507154508 | 20 | 265 | 3.2 | 11.3 | 0.00 | 0.00 | 0.00 | 71 | 1015.0 |
| 20260507153101 | 20 | 269 | 3.2 | 11.3 | 0.00 | 0.00 | 0.00 | 70 | 1015.1 |
| 20260507151550 | 20 | 348 | 6.4 | 16.1 | 0.00 | 0.00 | 0.00 | 70 | 1015.1 |
| 20260507150034 | 20 | 288 | 6.4 | 16.1 | 0.00 | 0.00 | 0.00 | 69 | 1015.2 |
| 20260507144535 | 20 | 290 | 6.4 | 14.5 | 0.00 | 0.00 | 0.00 | 68 | 1015.0 |
| 20260507143015 | 21 | 277 | 6.4 | 14.5 | 0.00 | 0.00 | 0.00 | 67 | 1015.2 |